{"data":{"norad_id":39451,"epoch":"2026-05-25T03:41:27.944160Z","epoch_age_seconds":64782,"freshness":"FRESH","line1":"1 39451U 13067A   26145.15379565  .00002902  00000+0  10377-3 0  9991","line2":"2 39451  87.7448 349.3156 0003215  98.3656 261.7958 15.28392182679721","mean_motion":15.28392182,"eccentricity":0.0003215,"inclination_deg":87.7448,"raan_deg":349.3156,"arg_perigee_deg":98.3656,"mean_anomaly_deg":261.7958,"bstar":0.00010377,"rev_number":67972,"period_min":94.216655709117,"perigee_km":478.41311816272,"apogee_km":482.82329776144,"semimajor_km":6858.7552079621,"source":"CELESTRAK","updated_at":"2026-05-25T13:38:24.642397Z"}}